Preview of NWS' New Version of Forecast
This preview is not operational and should not be used for support decisions.

Regional Weather Roundup (RWR)

Issued by National Weather Service (NWS)

                            
000
ASUS45 KCYS 240010
RWRWY 

WYOMING REGIONAL WEATHER ROUNDUP
NATIONAL WEATHER SERVICE CHEYENNE WY
600 PM MDT TUE APR 23 2019

NOTE:  "FAIR" INDICATES FEW OR NO CLOUDS BELOW 12,000 FEET
WITH NO SIGNIFICANT WEATHER AND/OR OBSTRUCTIONS TO VISIBILITY.

WYZ001-240100-
YELLOWSTONE NATIONAL PARK
  
CITY           SKY/WX    TMP DP  RH WIND       PRES   REMARKS
LK YELLOWSTONE   N/A     47  29  49 VRB6      30.18R                  
6HR MIN TEMP:  40; 6HR MAX TEMP:  49;                                

W YELLOWSTONE  NOT AVBL                                               

$$
WYZ002>013-054>058-071-098>099-240100-
NORTHERN WYOMING
  
CITY           SKY/WX    TMP DP  RH WIND       PRES   REMARKS
JACKSON        CLOUDY    56  35  45 W5        30.13S                  
CODY           PTSUNNY   68  31  25 W14G20    29.98F                  
GREYBULL       CLOUDY    70  38  31 SE5       29.91F                  
6HR MIN TEMP:  61; 6HR MAX TEMP:  73;                                

WORLAND        FAIR      68  34  28 CALM      29.94F                  
6HR MIN TEMP:  62; 6HR MAX TEMP:  72;                                

SHERIDAN       PTSUNNY   66  40  38 NW9       29.93S                  
6HR MIN TEMP:  66; 6HR MAX TEMP:  74;                                

BUFFALO        CLOUDY    64  39  39 N6        29.98S                  
6HR MIN TEMP:  63; 6HR MAX TEMP:  68;                                

GILLETTE       PTSUNNY   66  41  40 NW9       29.94S                  
6HR MIN TEMP:  64; 6HR MAX TEMP:  69;                                

HULETT         CLOUDY    66  36  32 W8        29.94                   
NEWCASTLE      FAIR      68  32  26 NW10G20   29.94                   

$$
WYZ014>020-022>026-101>103-240100-
CENTRAL WYOMING
  
CITY           SKY/WX    TMP DP  RH WIND       PRES   REMARKS
BIG PINEY      CLOUDY    57  32  38 N21G30    30.12S                  
6HR MIN TEMP:  56; 6HR MAX TEMP:  63;                                

PINEDALE       CLOUDY    55  34  44 NW23G32   30.12                   
DUBOIS         MOCLDY    54  30  40 NW9       30.11                   
LANDER         FAIR      65  33  30 VRB3      29.99F                  
6HR MIN TEMP:  59; 6HR MAX TEMP:  67;                                

RIVERTON       FAIR      65  29  25 E5        30.01S                  
6HR MIN TEMP:  55; 6HR MAX TEMP:  66;                                

CASPER         FAIR      66  27  23 NW7       29.98F                  
6HR MIN TEMP:  60; 6HR MAX TEMP:  68;                                

DOUGLAS        FAIR      69  29  22 NW7       29.97F                  
6HR MIN TEMP:  64; 6HR MAX TEMP:  71;                                


$$
WYZ021-027>030-104>119-240100-
SOUTHERN WYOMING
  
CITY           SKY/WX    TMP DP  RH WIND       PRES   REMARKS
EVANSTON       PTSUNNY   58  31  35 N13G22    30.16S                  
6HR MIN TEMP:  51; 6HR MAX TEMP:  61;                                

KEMMERER       FAIR      57  32  38 W20G26    30.15                   
ROCK SPRINGS   FAIR      61  28  28 W15G21    30.09F                  
6HR MIN TEMP:  52; 6HR MAX TEMP:  62;                                

DIXON          FAIR      63  28  26 W6        30.09F                  
RAWLINS        FAIR      60  27  28 W8        30.07F                  
6HR MIN TEMP:  53; 6HR MAX TEMP:  61;                                

SARATOGA       FAIR      59  30  33 W13       30.09F                  
LARAMIE        FAIR      58  30  34 NW9       30.06F                  
6HR MIN TEMP:  51; 6HR MAX TEMP:  59;                                

CHEYENNE       FAIR      63  32  31 VRB3      30.01F                  
6HR MIN TEMP:  55; 6HR MAX TEMP:  66; 6HR PCP: TRACE;                

TORRINGTON     FAIR      68  39  34 S6        29.93F                  
6HR MIN TEMP:  60; 6HR MAX TEMP:  70;                                

PINE BLUFFS    FAIR      64  34  32 S6        29.99F                  

$$